This is the latest recevied weather packets stored in our database for station/object NC4J. If no packets are shown the sender has not sent any weather packets the latest 10 day(s).
| Time | Temp. | Humidity | Pressure | Rain* | Wind** | Luminosity | Snow |
|---|---|---|---|---|---|---|---|
| 1777920843 | 21.67° C | 28% | 1016.3 hPa | 0 mm | - | 72 W/m² | - |
| 1777920538 | 22.22° C | 27% | 1016 hPa | 0 mm | - | 109 W/m² | - |
| 1777920234 | 22.22° C | 28% | 1016.2 hPa | 0 mm | - | 78 W/m² | - |
| 1777919930 | 22.22° C | 31% | 1016.3 hPa | 0 mm | - | 339 W/m² | - |
| 1777919628 | 22.22° C | 31% | 1016.3 hPa | 0 mm | - | 308 W/m² | - |
| 1777919325 | 21.67° C | 30% | 1016.3 hPa | 0 mm | - | 661 W/m² | - |
| 1777919023 | 22.22° C | 32% | 1016.3 hPa | 0 mm | - | 709 W/m² | - |
| 1777918719 | 22.22° C | 30% | 1016.5 hPa | 0 mm | - | 101 W/m² | - |
| 1777918417 | 21.67° C | 32% | 1016.7 hPa | 0 mm | - | 100 W/m² | - |
| 1777918116 | 21.67° C | 34% | 1016.7 hPa | 0 mm | - | 114 W/m² | - |
| 1777917814 | 21.67° C | 33% | 1016.8 hPa | 0 mm | - | 81 W/m² | - |
| 1777917512 | 21.11° C | 32% | 1016.8 hPa | 0 mm | - | 93 W/m² | - |
| 1777917208 | 20.56° C | 32% | 1016.6 hPa | 0 mm | - | 162 W/m² | - |
| 1777916907 | 20.56° C | 34% | 1017 hPa | 0 mm | - | 349 W/m² | - |
| 1777916604 | 21.11° C | 34% | 1017.1 hPa | 0 mm | - | 149 W/m² | - |
| 1777916300 | 20.56° C | 34% | 1017 hPa | 0 mm | - | 68 W/m² | - |
| 1777915997 | 20.56° C | 35% | 1017 hPa | 0 mm | - | 62 W/m² | - |
| 1777915694 | 20.56° C | 34% | 1017 hPa | 0 mm | - | 56 W/m² | - |
| 1777915391 | 20.56° C | 36% | 1017.1 hPa | 0 mm | - | 63 W/m² | - |
| 1777915086 | 20.56° C | 33% | 1017 hPa | 0 mm | - | 67 W/m² | - |
| 1777914784 | 21.11° C | 31% | 1017.3 hPa | 0 mm | - | 76 W/m² | - |
| 1777914481 | 21.11° C | 34% | 1017.2 hPa | 0 mm | - | 188 W/m² | - |
| 1777914178 | 21.67° C | 34% | 1017.3 hPa | 0 mm | - | 391 W/m² | - |
| 1777913874 | 21.11° C | 35% | 1017.4 hPa | 0 mm | - | 148 W/m² | - |
| 1777913571 | 20° C | 38% | 1017.3 hPa | 0 mm | - | 314 W/m² | - |
* Rain latest hour (hover to see other rain measurements)
** Current wind speed in m/s (hover to see current wind gust speed)